STARLINK-34937, 66192

Orbit data source: Space-Track

STARLINK-34937, 66192 is a payload satellite owned by SpaceX/Seattle (US) in LEO that was launched on Sun, 26 Oct 2025 UTC via an FALCON 9 launch vehicle from the Air Force Eastern Test Range (AFETR). Payload-class satellites include a variety of spacecraft equipped with specific instruments for various scientific and technological missions. These include communications satellites like Starlink; space stations such as the ISS; scientific satellites like the Hubble; Earth observation satellites from companies like Planet Labs, Umbra, and HawkEye 360; GPS; miniature CubeSats for education and research; and military/defense satellites.

Loading next visibility...
Identifier
66192, 2025-243R
Orbit
LEO
Country
Flag of USUS
Related business
Manufacturer
SpaceX/Seattle
Mission
Operational Commercial Communications
Bus & Motor
STARLINK V2MO, Unknown motor
Mass
575 kg wet, ~530 kg dry
Launch date (UTC)
2025-10-26 (8 months ago)
Launch vehicle
FALCON 9
Launch site
Air Force Eastern Test Range (AFETR)
Object type
Payload
Rocket body
Debris
Shape & HBR
Box + 2 Pan, 17.7 m
Radar Cross Section
36.964 m², Large (>1 m²)

Expand to show TLE details & history
Last TLE update: 23 hours ago

TLE from 23 hours ago
0 STARLINK-34937
1 66192U 25243R   26170.90045189  .00040747  00000-0  12103-2 0  9993
2 66192  53.1606 130.4325 0001331  87.6564 272.4591 15.34406082 36304
Epoch: 2026-06-19T21:36Z
TLE epoch observation values (Epoch: 2026-06-19T21:36:39.043Z)
Latitude
-0.00001°
Longitude
-101.85298°
Altitude
463.548 km
Speed
7.636 km/s
True Right ascension
08h 41m 43s
True Declination
0° 00' 00"
Sunlit
Object was in daylight at epoch
Visualization orbit readout
Latitude
Unknown
Longitude
Unknown
Altitude
Unknown
Speed
Unknown
Apparent Right ascension
Unknown
Apparent Declination
Unknown
Sunlit
N/A
Visualization observer readout
Local Sidereal Time
07:17:33
Azimuth
Unknown
Elevation
Unknown
Doppler factor
Unknown
Orbital elements
Apogee altitude
463.852 km
Perigee altitude
462.031 km
Semi-major axis
6,841.079 km
Eccentricity
0.00013
Inclination
53.1606°
RAAN
130.4325°
Arg. of periapsis
87.6564°
True anomaly
272.44386°
Mean anomaly
272.4591°
Eccentric anomaly
272.45148°
Mean motion
3.8358 °/min
Orbital period
93.85 mins
BSTAR
0.0012103
Loading maneuver chart data...
Computing Atmospheric mass density...
Loading historical data...
Loading historical data...
Loading historical data...
Loading historical data...
Loading historical data...
Loading historical data...
Loading historical data...

Documentation

Showing up to 5 results
|